Flight Track Log - Related Links

Times and Time Zones

All times are in EDT time to prevent confusion due to time zone crossing. See the AAL1242 flight status page for this flight to view local times or setup timezone preferences in your user account.

Time Position Orientation Groundspeed Altitude Reporting Facility
EDT Latitude Longitude Course Direction KTS MPH feet Rate Location/Type
Sun 04:57:06 PM 39.8667 -104.5667 169° South 199 229 7,100  Level Denver TRACON
Sun 04:58:06 PM 39.8333 -104.4833 117° Southeast 255 293 8,800 1,500 Climbing Denver TRACON
Sun 04:59:00 PM 39.5499 -104.4612 207° Southwest  Level FlightAware Approximate
Sun 04:59:14 PM 39.7964 -104.3878 117° Southeast 293 337 10,300  Level Denver Center
Sun 05:00:00 PM 39.4316 -104.5000 180° South  Level FlightAware Approximate
Sun 05:00:16 PM 39.7153 -104.3628 167° South 306 352 12,400  Level Denver Center
Sun 05:01:00 PM 39.3074 -104.4935 169° South  Level FlightAware Approximate
Sun 05:01:18 PM 39.6236 -104.4128 203° Southwest 336 387 15,200  Level Denver Center
Sun 05:02:00 PM 39.1922 -104.4647 169° South  Level FlightAware Approximate
Sun 05:02:20 PM 39.5394 -104.4739 209° Southwest 349 402 17,700  Level Denver Center
Sun 05:03:21 PM 39.4433 -104.5064 195° South 372 428 20,000 2,146 Climbing Denver Center
Sun 05:04:23 PM 39.3292 -104.4811 170° South 396 456 22,100 1,597 Climbing Denver Center
Sun 05:05:25 PM 39.2161 -104.4553 170° South 417 480 23,300 1,355 Climbing Denver Center
Sun 05:06:27 PM 39.0950 -104.4281 170° South 417 480 24,900 1,512 Climbing Denver Center
Sun 05:07:28 PM 38.9781 -104.4025 170° South 438 504 26,400 1,610 Climbing Denver Center
Sun 05:08:30 PM 38.8469 -104.3692 169° South 450 518 28,200 1,790 Climbing Denver Center
Sun 05:09:32 PM 38.7231 -104.3411 170° South 448 516 30,100 1,403 Climbing Denver Center
Sun 05:10:34 PM 38.6106 -104.2694 154° Southeast 469 540 31,100 927 Climbing Denver Center
Sun 05:11:35 PM 38.5072 -104.1614 141° Southeast 476 548 32,000 732 Climbing Denver Center
Sun 05:12:37 PM 38.4017 -104.0497 140° Southeast 483 556 32,600 677 Climbing Denver Center
Sun 05:13:39 PM 38.2831 -103.9217 140° Southeast 497 572 33,400 823 Climbing Denver Center
Sun 05:14:41 PM 38.1794 -103.8108 140° Southeast 505 581 34,300 774 Climbing Denver Center
Sun 05:15:43 PM 38.0597 -103.6833 140° Southeast 502 578 35,000 339 Climbing Denver Center
Sun 05:16:45 PM 37.9531 -103.5708 140° Southeast 514 592 35,000  Level Denver Center
Sun 05:17:46 PM 37.8478 -103.4600 140° Southeast 512 589 35,000  Level Denver Center
Sun 05:18:48 PM 37.7256 -103.3294 140° Southeast 513 590 35,000  Level Denver Center
Sun 05:19:50 PM 37.6189 -103.2192 141° Southeast 513 590 35,000  Level Denver Center
Sun 05:20:52 PM 37.4972 -103.0908 140° Southeast 509 586 35,000  Level Denver Center
Sun 05:21:54 PM 37.4086 -102.9594 130° Southeast 514 592 35,000  Level Denver Center
Sun 05:22:24 PM 37.3664 -102.8950 129° Southeast 510 587 35,000  Level Albuquerque Center
Sun 05:23:26 PM 37.2633 -102.7472 131° Southeast 505 581 35,000  Level Albuquerque Center
Sun 05:24:28 PM 37.1731 -102.6186 131° Southeast 509 586 35,000  Level Albuquerque Center
Sun 05:25:30 PM 37.0794 -102.4856 131° Southeast 513 590 35,000  Level Albuquerque Center
Sun 05:25:55 PM 37.0333 -102.4225 132° Southeast 512 589 35,000  Level Albuquerque Center
Sun 05:26:57 PM 36.9444 -102.2953 131° Southeast 509 586 35,000  Level Albuquerque Center
Sun 05:27:59 PM 36.8364 -102.1464 132° Southeast 516 594 35,000  Level Albuquerque Center
Sun 05:28:00 PM 36.8597 -102.1796 132° Southeast  Level FlightAware Approximate
Sun 05:29:01 PM 36.7456 -102.0183 131° Southeast 517 595 35,000  Level Albuquerque Center
Sun 05:30:03 PM 36.6406 -101.8733 132° Southeast 510 587 35,000  Level Albuquerque Center
Sun 05:31:05 PM 36.5533 -101.7528 132° Southeast 508 585 35,000  Level Albuquerque Center
Sun 05:32:07 PM 36.4403 -101.5967 132° Southeast 507 583 35,000  Level Albuquerque Center
Sun 05:33:09 PM 36.3544 -101.4808 133° Southeast 507 583 35,000  Level Albuquerque Center
Sun 05:34:11 PM 36.2511 -101.3397 132° Southeast 503 579 35,000  Level Albuquerque Center
Sun 05:35:13 PM 36.1597 -101.2133 132° Southeast 511 588 35,000  Level Albuquerque Center
Sun 05:36:15 PM 36.0653 -101.0842 132° Southeast 511 588 35,000  Level Albuquerque Center
Sun 05:37:17 PM 35.9525 -100.9311 132° Southeast 504 580 35,000  Level Albuquerque Center
Sun 05:38:19 PM 35.8567 -100.8025 133° Southeast 505 581 35,000  Level Albuquerque Center
Sun 05:39:21 PM 35.7611 -100.6758 133° Southeast 505 581 35,000  Level Albuquerque Center
Sun 05:40:23 PM 35.6678 -100.5500 132° Southeast 501 577 35,000  Level Albuquerque Center
Sun 05:41:25 PM 35.5722 -100.4233 133° Southeast 503 579 35,000  Level Albuquerque Center
Sun 05:42:28 PM 35.4781 -100.2958 132° Southeast 504 580 35,000  Level Albuquerque Center
Sun 05:43:30 PM 35.3608 -100.1442 133° Southeast 508 585 35,000  Level Albuquerque Center
Sun 05:44:32 PM 35.2656 -100.0186 133° Southeast 506 582 35,000  Level Albuquerque Center
Sun 05:45:34 PM 35.1706 -99.8933 133° Southeast 505 581 35,000  Level Albuquerque Center
Sun 05:46:36 PM 35.0733 -99.7658 133° Southeast 511 588 35,000  Level Albuquerque Center
Sun 05:47:38 PM 34.9753 -99.6403 134° Southeast 512 589 35,000  Level Albuquerque Center
Sun 05:47:54 PM 34.9347 -99.5867 133° Southeast 508 585 35,000  Level Fort Worth Center
Sun 05:48:54 PM 34.8344 -99.4625 135° Southeast 513 590 35,000  Level Fort Worth Center
Sun 05:49:54 PM 34.7386 -99.3364 133° Southeast 513 590 35,000  Level Fort Worth Center
Sun 05:50:54 PM 34.6403 -99.2106 134° Southeast 513 590 35,000 -100 Level Fort Worth Center
Sun 05:51:54 PM 34.5458 -99.0900 134° Southeast 508 585 34,800 -700 Descending Fort Worth Center
Sun 05:52:54 PM 34.4453 -98.9672 135° Southeast 508 585 33,600 -1,200 Descending Fort Worth Center
Sun 05:53:54 PM 34.3508 -98.8447 133° Southeast 508 585 32,400 -1,300 Descending Fort Worth Center
Sun 05:54:54 PM 34.2519 -98.7225 134° Southeast 508 585 31,000 -1,950 Descending Fort Worth Center
Sun 05:55:54 PM 34.1531 -98.5981 134° Southeast 508 585 28,500 -3,050 Descending Fort Worth Center
Sun 05:56:54 PM 34.0561 -98.4714 133° Southeast 513 590 24,900 -3,200 Descending Fort Worth Center
Sun 05:57:54 PM 33.9592 -98.3500 134° Southeast 507 583 22,100 -2,050 Descending Fort Worth Center
Sun 05:58:54 PM 33.8658 -98.2314 133° Southeast 507 583 20,800 -1,150 Descending Fort Worth Center
Sun 05:59:54 PM 33.7831 -98.1281 134° Southeast 454 522 19,800 -1,550 Descending Fort Worth Center
Sun 06:00:54 PM 33.7064 -98.0328 134° Southeast 414 476 17,700 -2,200 Descending Fort Worth Center
Sun 06:01:54 PM 33.6297 -97.9397 135° Southeast 392 451 15,400 -2,100 Descending Fort Worth Center
Sun 06:02:54 PM 33.5528 -97.8472 135° Southeast 386 444 13,500 -2,000 Descending Fort Worth Center
Sun 06:03:54 PM 33.4903 -97.7722 135° Southeast 373 429 11,400 -1,700 Descending Fort Worth Center
Sun 06:04:54 PM 33.4156 -97.6822 135° Southeast 350 403 10,100 -1,200 Descending Fort Worth Center
Sun 06:05:54 PM 33.3572 -97.6100 134° Southeast 310 357 9,000 -1,150 Descending Fort Worth Center
Sun 06:06:54 PM 33.3072 -97.5478 134° Southeast 294 338 7,800 -1,350 Descending Fort Worth Center
Sun 06:07:54 PM 33.2531 -97.4781 133° Southeast 273 314 6,300 -1,400 Descending Fort Worth Center
Sun 06:08:54 PM 33.2050 -97.4208 135° Southeast 268 308 5,000 -650 Descending Fort Worth Center
Sun 06:09:54 PM 33.1528 -97.3539 133° Southeast 263 303 5,000 -550 Level Fort Worth Center
Sun 06:10:54 PM 33.1067 -97.3019 137° Southeast 250 288 3,900 -1,000 Descending Fort Worth Center
Sun 06:11:54 PM 33.0544 -97.2400 135° Southeast 244 281 3,000 -900 Descending Fort Worth Center

Login

Don't have an account? Register now (free) for customized features, flight alerts, and more!